#timestamp,LO_Frequency,Hit,StdDev 
1509145215.7,286047021.0,Y
1509145235.6,286047005.1,P
1509145255.4,286047004.1,N
1509145275.2,286047004.9,N
1509145295.1,286047006.5,N
1509145296.0,286047006.5,N
1509145315.8,286047007.6,N
1509145335.6,286047007.5,N
1509145355.5,286047007.7,N
1509145375.3,286047009.4,N
1509145395.1,286047008.7,N
1509145415.9,286047007.2,N
1509145435.7,286047003.6,N
1509145455.6,286047002.4,N
1509145475.4,286046998.5,N
1509145495.2,286046999.3,N
1509145515.1,286046992.8,N
1509145516.0,286046992.8,N
1509145535.8,286046989.0,N
1509145555.6,286046990.4,N
1509145575.5,286046990.9,N
1509145595.3,286046997.5,N
1509145615.1,286047000.3,N
1509145635.9,286047000.9,N
1509145655.7,286047000.7,N
1509145675.5,286046998.9,N
1509145695.4,286047002.6,N
1509145715.2,286046998.6,N
1509145735.0,286046997.8,N
1509145735.9,286046997.8,N
1509145755.8,286046996.5,N
1509145775.6,286047002.6,N
1509145795.4,286047004.1,N
1509145815.3,286047002.4,N
1509145835.1,286046998.4,N
1509145855.8,286046998.4,N
1509145875.7,286046996.5,N
1509145895.5,286046996.6,N
1509145915.3,286046997.8,N
1509145935.2,286046995.8,N
1509145955.0,286046998.6,N
1509145955.9,286046998.6,N
1509145975.7,286046999.7,N
1509145995.6,286047000.0,N
1509146015.4,286046998.6,N
1509146035.2,286046998.6,N
1509146055.1,286046996.6,N
1509146056.0,286046996.6,N
1509146075.8,286046996.5,N
1509146095.6,286046999.3,N
1509146115.5,286046998.2,N
1509146135.3,286046999.1,N
1509146155.1,286046995.1,N
1509146175.9,286046998.9,N
1509146195.7,286047002.6,N
1509146215.5,286047006.4,N
1509146235.4,286047006.4,N
1509146255.2,286047005.2,N
1509146275.0,286047003.5,N
1509146276.0,286047003.5,N
1509146295.8,286047005.6,N
1509146315.6,286047002.7,N
1509146335.5,286047002.0,N
1509146355.3,286047001.4,N
1509146375.1,286047003.9,N
1509146395.9,286047003.2,N
1509146415.7,286047003.4,N
1509146435.5,286047003.8,N
1509146455.4,286047003.6,N
1509146475.2,286047004.9,N
1509146495.0,286047006.7,N
1509146495.9,286047006.7,N
1509146515.8,286047006.0,N
1509146535.6,286047004.0,N
1509146555.4,286047003.1,N
1509146575.3,286047007.1,N
1509146595.1,286047002.3,N
1509146615.8,286046995.1,N
1509146635.7,286046993.4,N
1509146655.5,286046994.9,N
1509146675.3,286046995.5,N
1509146695.2,286046994.8,N
1509146715.9,286046992.7,N
1509146735.7,286046991.4,N
1509146755.6,286046989.1,N
1509146775.4,286046989.0,N
1509146795.2,286046989.0,N
1509146815.1,286046985.9,N
1509146816.0,286046985.9,N
1509146835.8,286046986.7,N
1509146855.6,286046988.0,N
1509146875.5,286046986.9,N
1509146895.3,286046989.5,N
1509146915.1,286046990.3,N
1509146935.9,286046991.7,N
1509146955.7,286046990.9,N
1509146975.5,286046991.7,N
1509146995.4,286046990.3,N
1509147015.2,286046993.2,N
1509147035.1,286046993.9,N
1509147036.0,286046993.9,N
1509147055.8,286046995.5,N
1509147075.6,286046994.9,N
1509147095.5,286046996.5,N
1509147115.3,286046999.8,N
1509147135.1,286046999.3,N
1509147155.9,286046997.3,N
1509147175.7,286046998.7,N
1509147195.5,286047002.4,N
1509147215.4,286047003.2,N
1509147235.2,286047001.8,N
1509147255.0,286047002.3,N
1509147255.9,286047002.3,N
1509147275.8,286047004.3,N
1509147295.6,286047002.8,N
1509147315.4,286047000.5,N
1509147335.3,286046999.8,N
1509147355.1,286047004.0,N
1509147375.8,286047006.0,N
1509147395.7,286047008.7,N
1509147415.5,286047014.0,N
1509147435.3,286047009.6,N
1509147455.2,286047010.4,N
1509147475.0,286047010.5,N
1509147475.9,286047010.5,N
1509147495.7,286047009.7,N
1509147515.6,286047012.0,N
1509147535.4,286047014.7,N
1509147555.3,286047012.8,N
1509147575.1,286047013.8,N
1509147576.0,286047013.8,N
1509147595.8,286047015.3,N
1509147615.7,286047014.0,N
1509147635.5,286047009.4,N
1509147655.3,286047010.3,N
1509147675.2,286047008.1,N
1509147695.9,286047007.8,N
1509147715.7,286047006.5,N
1509147735.6,286047004.9,N
1509147755.4,286047003.6,N
1509147775.2,286047003.9,N
1509147795.1,286047004.5,N
1509147796.0,286047004.5,N
1509147815.8,286047005.6,N
1509147835.6,286047003.0,N
1509147855.5,286047006.4,N
1509147875.3,286047006.4,N
1509147895.1,286047005.0,N
1509147915.9,286047004.5,N
1509147935.7,286047005.3,N
1509147955.5,286047003.7,N
1509147975.4,286047005.8,N
1509147995.2,286047004.5,N
1509148015.0,286047004.2,N
1509148015.9,286047004.2,N
1509148035.8,286047005.0,N
1509148055.6,286047007.2,N
1509148075.4,286047007.6,N
1509148095.3,286047006.5,N
1509148115.1,286047007.6,N
1509148135.8,286047009.2,N
1509148155.7,286047006.1,N
1509148175.5,286047004.7,N
1509148195.4,286047007.3,Y
1509148215.2,286046999.6,P
1509148235.0,286046999.9,N
1509148235.9,286046999.9,N
1509148255.8,286046998.2,N
1509148275.6,286047001.0,N
1509148295.4,286046995.8,N
1509148315.3,286046993.3,N
1509148335.1,286046995.1,N
1509148336.0,286046995.1,N
1509148355.8,286046994.9,N
1509148375.7,286046995.1,N
1509148395.5,286046997.3,N
1509148415.3,286046997.8,N
1509148435.2,286046993.6,N
1509148455.9,286046994.4,N
1509148475.7,286046990.2,Y
1509148495.6,286046995.4,P
1509148515.4,286046998.0,N
1509148535.2,286046996.1,P
1509148555.1,286046995.5,Y
1509148556.0,286046995.5,P
1509148575.8,286047000.7,N
1509148595.7,286046999.2,N
1509148615.5,286046998.4,N
1509148635.3,286046998.9,N
1509148655.2,286046996.1,N
1509148675.9,286046994.5,Y
1509148695.7,286046995.5,P
1509148715.6,286046996.0,P
1509148735.4,286046997.9,N
1509148755.2,286046997.5,N
1509148775.1,286046994.4,Y
1509148776.0,286046994.4,P
1509148795.8,286046993.8,P
